EST,Max TemperatureF,Mean TemperatureF,Min TemperatureF,Max Dew PointF,MeanDew PointF,Min DewpointF,Max Humidity, Mean Humidity, Min Humidity, Max Sea Level PressureIn, Mean Sea Level PressureIn, Min Sea Level PressureIn, Max VisibilityMiles, Mean VisibilityMiles, Min VisibilityMiles, Max Wind SpeedMPH, Mean Wind SpeedMPH, Max Gust SpeedMPH,PrecipitationIn, CloudCover, Events, WindDirDegrees
2014-1-1,20,17,14,13,10,5,88,74,57,30.41,30.33,30.26,10,8,2,12,5,,0.00,8,Snow,315
2014-1-2,15,8,1,11,7,-3,88,84,78,30.26,30.04,29.84,10,2,0,13,6,,0.09,8,Fog-Snow,31
2014-1-3,3,-4,-11,-2,-8,-17,85,77,70,30.48,30.14,29.86,10,5,1,16,10,22,0.00,7,Snow,341
2014-1-4,25,8,-8,8,0,-13,79,58,44,30.42,30.28,30.15,10,10,10,22,10,28,0.00,2,Snow,172
2014-1-5,45,32,19,44,22,8,96,68,48,30.21,29.99,29.54,10,10,10,22,10,32,0.04,6,Rain,160
2014-1-6,48,26,2,45,22,-12,93,74,50,29.79,29.56,29.33,10,9,4,22,16,32,0.00,7,Rain-Snow,261
2014-1-7,3,0,-4,-9,-14,-17,63,53,43,30.30,30.08,29.85,10,10,10,24,14,28,0.00,4,Snow,255
2014-1-8,17,8,0,2,-3,-9,69,59,48,30.49,30.40,30.28,10,10,8,14,9,,0.00,3,,219
2014-1-9,24,20,15,14,10,9,86,68,50,30.61,30.54,30.43,10,9,4,10,6,,0.00,3,Snow,275
2014-1-10,35,30,26,34,27,21,93,84,75,30.33,30.25,30.14,10,8,1,16,10,,0.00,7,Snow,170
2014-1-11,48,45,42,48,44,34,100,91,70,29.82,29.54,29.28,10,9,4,18,13,23,0.00,7,Rain,178
2014-1-12,35,30,26,28,25,23,86,74,65,29.98,29.83,29.59,10,10,10,24,13,29,0.00,6,Snow,273
2014-1-13,48,40,32,32,27,25,80,55,40,29.96,29.83,29.75,10,10,10,21,12,21,0.00,4,,167
2014-1-14,42,35,28,43,37,28,100,93,87,29.83,29.73,29.69,10,7,2,12,8,,0.00,8,Rain,296
2014-1-15,41,34,26,34,28,21,93,83,65,29.95,29.88,29.81,10,7,2,15,9,,0.00,7,Snow,273
2014-1-16,32,28,23,23,20,18,93,76,60,29.96,29.88,29.82,10,10,10,9,3,,0.00,4,Snow,144
2014-1-17,37,32,26,25,21,18,86,69,52,29.85,29.82,29.80,10,10,5,14,9,,0.00,5,Snow,180
2014-1-18,28,24,19,27,19,12,93,85,74,29.84,29.80,29.74,10,4,0,16,8,,0.00,8,Snow,312
2014-1-19,30,22,14,21,15,10,93,72,60,29.72,29.59,29.49,10,9,2,18,9,,0.00,6,Snow,221
2014-1-20,30,20,10,27,15,7,93,80,68,29.95,29.73,29.50,10,6,2,20,10,23,0.00,8,Snow,313
2014-1-21,6,-2,-11,3,-5,-15,85,75,66,30.03,30.00,29.95,10,10,7,14,6,,0.00,3,,355
2014-1-22,1,-8,-16,-4,-10,-22,84,77,66,29.99,29.97,29.93,10,8,2,14,6,22,0.00,5,Snow,14
2014-1-23,12,5,-2,3,0,-6,85,76,62,30.24,30.12,30.00,10,7,2,18,6,21,0.00,6,Snow,314
2014-1-24,15,8,0,-2,-4,-6,78,56,38,30.31,30.09,29.79,10,10,10,24,11,22,0.00,4,,235
2014-1-25,24,20,14,18,10,0,86,68,49,29.56,29.40,29.26,10,7,1,23,14,24,0.00,8,Snow,199
2014-1-26,21,12,5,14,2,-6,78,68,52,29.74,29.65,29.57,10,9,3,18,10,20,0.00,5,Snow,217
2014-1-27,33,19,5,27,4,-9,93,57,43,30.14,29.80,29.36,10,9,0,25,16,34,0.00,5,Snow,276
2014-1-28,10,4,-1,0,-8,-15,85,59,38,30.38,30.24,30.09,10,8,1,17,10,22,0.00,2,Snow,263
2014-1-29,16,2,-13,-2,-10,-18,83,57,37,30.32,30.17,30.07,10,10,10,14,4,,0.00,0,,244
2014-1-30,26,10,-7,4,-2,-12,84,58,37,30.39,30.24,30.00,10,10,10,18,6,30,0.00,1,,165
2014-1-31,34,28,21,17,11,5,75,53,45,30.21,30.09,29.96,10,10,10,12,9,,0.00,7,,191